Location: Beuerbach
(48.1459°N, 10.9174°E)
Time: 23:42:21
(UTC+00:00)

NOSS 3-4 (A) - Pass Details

Date: 23 May 2024
Orbit: 787 x 1424 km, 63.4° (Epoch: 08 April)

Event Time Altitude Azimuth Distance (km) Brightness Sun altitude
Rises 00:22:33 0° 316° (NW) 3,785 7.0 -19.5°
Reaches altitude 10° 00:25:06 10° 310° (NW) 2,918 6.3 -19.3°
Maximum altitude 00:31:44 47° 240° (WSW) 1,539 4.2 -19.0°
Enters shadow 00:35:51 26° 182° (S) 2,255 4.8 -18.8°
